Edinburgh Airport, United Kingdom

1:59 AM GMT on December 12, 2017 (GMT +0000)
Edinburgh Airport

Weather History for EGPH - April, 2014

Change the Weather History Date:

Thursday, April 17, 2014

  Actual Average Record
Temperature  
Mean Temperature 48 °F -  
Max Temperature 55 °F 55 °F 62 °F (2011)
Min Temperature 41 °F 40 °F 28 °F (2016)
Degree Days  
Heating Degree Days 17    
Moisture  
Dew Point 38 °F    
Average Humidity 66    
Maximum Humidity 94    
Minimum Humidity 44    
Precipitation  
Precipitation 0.00 in 0.06 in - ()
Sea Level Pressure  
Sea Level Pressure 29.95 in    
Wind  
Wind Speed 14 mph ()    
Max Wind Speed 23 mph    
Max Gust Speed 34 mph    
Visibility 6.1 miles    
Events Rain    
Averages and records for this station are not official NWS values.
T = Trace of Precipitation, MM = Missing Value Source: Averaged Metar Reports

Daily Weather History Graph

Daily Weather History Graph

Search for Another Location

Airport or City:

Trip Planner

Search our weather history database for the weather conditions in past years. The results will help you decide how hot, cold, wet, or windy it might be!

Date:

Astronomy

Apr. 17, 2014 Rise Set
Actual Time 6:03 AM BST 8:23 PM BST
Civil Twilight 5:22 AM BST 9:04 PM BST
Nautical Twilight 4:30 AM BST 9:57 PM BST
Astronomical Twilight 3:27 AM BST 11:01 PM BST
Moon 11:17 PM BST (4/17) 7:06 AM BST (4/17)
Length of Visible Light 15h 41m
Length of Day
14h 20m
Waning Gibbous, 95% of the Moon is Illuminated
Apr 17
Waning Gibbous
Apr 22
Last Quarter
Apr 29
New
May 7
First Quarter
May 14
Full

Hourly Weather History & Observations

Time (BST) Temp. Windchill Dew Point Humidity Pressure Visibility Wind Dir Wind Speed Gust Speed Precip Events Conditions
12:20 AM 51.8 °F - 44.6 °F 76% 29.95 in 6.2 mi WSW 19.6 mph - N/A   Overcast
12:50 AM 51.8 °F - 44.6 °F 76% 29.95 in 6.2 mi WSW 16.1 mph - N/A   Overcast
1:20 AM 50.0 °F - 46.4 °F 87% 29.95 in 5.0 mi WSW 12.7 mph - N/A Rain Light Rain
1:50 AM 50.0 °F - 48.2 °F 94% 29.95 in 5.0 mi WSW 13.8 mph - N/A Rain Light Rain
2:20 AM 50.0 °F - 46.4 °F 87% 29.92 in 6.2 mi WSW 18.4 mph - N/A Rain Light Rain
2:50 AM 50.0 °F - 46.4 °F 87% 29.92 in 6.2 mi WSW 17.3 mph - N/A   Overcast
3:20 AM 50.0 °F - 46.4 °F 87% 29.92 in 6.2 mi WSW 18.4 mph - N/A   Overcast
3:50 AM 50.0 °F - 46.4 °F 87% 29.89 in 6.2 mi WSW 16.1 mph - N/A Rain Light Rain
4:20 AM 48.2 °F - 46.4 °F 93% 29.89 in 6.2 mi WSW 13.8 mph - N/A   Mostly Cloudy
4:50 AM 50.0 °F - 44.6 °F 82% 29.89 in 6.2 mi West 15.0 mph - N/A   Mostly Cloudy
5:20 AM 48.2 °F - 42.8 °F 82% 29.89 in 6.2 mi West 18.4 mph - N/A   Mostly Cloudy
5:50 AM 48.2 °F - 41.0 °F 76% 29.89 in 6.2 mi WSW 18.4 mph - N/A   Partly Cloudy
6:20 AM 48.2 °F - 39.2 °F 71% 29.89 in 6.2 mi West 17.3 mph - N/A   Mostly Cloudy
6:50 AM 46.4 °F 39.2 °F 39.2 °F 76% 29.89 in 6.2 mi West 18.4 mph 29.9 mph N/A Rain Light Rain Showers
7:20 AM 46.4 °F 39.5 °F 41.0 °F 81% 29.89 in 6.2 mi West 17.3 mph - N/A Rain Light Rain Showers
7:50 AM 46.4 °F 39.5 °F 41.0 °F 81% 29.89 in 6.2 mi West 17.3 mph - N/A Rain Light Rain Showers
8:20 AM 46.4 °F 39.0 °F 41.0 °F 81% 29.89 in 6.2 mi WSW 19.6 mph - N/A   Mostly Cloudy
8:50 AM 48.2 °F - 41.0 °F 76% 29.86 in 6.2 mi WSW 17.3 mph - N/A   Mostly Cloudy
9:20 AM 46.4 °F 38.7 °F 42.8 °F 87% 29.86 in 6.2 mi West 20.7 mph - N/A Rain Light Rain Showers
9:50 AM 48.2 °F - 41.0 °F 76% 29.86 in 6.2 mi WSW 23.0 mph 34.5 mph N/A   Mostly Cloudy
10:20 AM 50.0 °F - 42.8 °F 76% 29.86 in 6.2 mi West 23.0 mph - N/A   Overcast
10:50 AM 51.8 °F - 42.8 °F 71% 29.86 in 6.2 mi WSW 21.9 mph - N/A   Overcast
11:20 AM 50.0 °F - 44.6 °F 82% 29.86 in 5.6 mi West 20.7 mph - N/A Rain Light Rain Showers
11:50 AM 53.6 °F - 42.8 °F 67% 29.86 in 6.2 mi West 20.7 mph 32.2 mph N/A   Scattered Clouds
12:20 PM 55.4 °F - 39.2 °F 54% 29.89 in 6.2 mi West 20.7 mph 32.2 mph N/A   Scattered Clouds
12:50 PM 51.8 °F - 37.4 °F 58% 29.89 in 6.2 mi WNW 16.1 mph 29.9 mph N/A   Scattered Clouds
1:20 PM 51.8 °F - 32.0 °F 47% 29.89 in 6.2 mi WNW 18.4 mph - N/A   Partly Cloudy
1:50 PM 51.8 °F - 32.0 °F 47% 29.92 in - WNW 18.4 mph 29.9 mph N/A   Clear
2:20 PM 51.8 °F - 30.2 °F 44% 29.92 in 6.2 mi West 17.3 mph - N/A   Partly Cloudy
2:50 PM 51.8 °F - 32.0 °F 47% 29.92 in 6.2 mi West 15.0 mph 28.8 mph N/A   Partly Cloudy
3:20 PM 53.6 °F - 33.8 °F 47% 29.95 in 6.2 mi West 15.0 mph - N/A   Partly Cloudy
3:50 PM 53.6 °F - 33.8 °F 47% 29.95 in 6.2 mi WNW 11.5 mph - N/A   Partly Cloudy
4:20 PM 53.6 °F - 33.8 °F 47% 29.95 in 6.2 mi WNW 13.8 mph - N/A   Scattered Clouds
4:50 PM 53.6 °F - 32.0 °F 44% 29.98 in 6.2 mi WNW 12.7 mph - N/A   Partly Cloudy
5:20 PM 53.6 °F - 32.0 °F 44% 29.98 in 6.2 mi WNW 12.7 mph - N/A   Partly Cloudy
5:50 PM 53.6 °F - 32.0 °F 44% 29.98 in 6.2 mi WNW 15.0 mph - N/A   Partly Cloudy
6:20 PM 53.6 °F - 33.8 °F 47% 30.01 in 6.2 mi WNW 9.2 mph - N/A   Unknown
6:50 PM 51.8 °F - 32.0 °F 47% 30.01 in 6.2 mi NW 8.1 mph - N/A   Partly Cloudy
7:20 PM 50.0 °F - 30.2 °F 47% 30.04 in 6.2 mi NW 8.1 mph - N/A   Partly Cloudy
7:50 PM 50.0 °F - 30.2 °F 47% 30.04 in 6.2 mi WNW 6.9 mph - N/A   Partly Cloudy
8:20 PM 48.2 °F - 32.0 °F 54% 30.06 in 6.2 mi North 9.2 mph - N/A   Partly Cloudy
8:50 PM 46.4 °F 41.9 °F 33.8 °F 62% 30.06 in 6.2 mi North 9.2 mph - N/A   Partly Cloudy
9:20 PM 44.6 °F 41.4 °F 30.2 °F 57% 30.06 in - North 5.8 mph - N/A   Clear
9:50 PM 44.6 °F - 30.2 °F 57% 30.09 in - Variable 2.3 mph - N/A   Clear
10:20 PM 42.8 °F 40.1 °F 28.4 °F 57% 30.12 in 6.2 mi North 4.6 mph - N/A   Unknown
10:50 PM 42.8 °F 41.1 °F 28.4 °F 57% 30.12 in - Variable 3.5 mph - N/A   Clear
11:20 PM 41.0 °F - 26.6 °F 57% 30.12 in - Calm Calm - N/A   Clear
11:50 PM 41.0 °F 39.0 °F 28.4 °F 61% 30.12 in - Variable 3.5 mph - N/A   Clear